Tracking 29892 objects as of 21-Nov-2024
HD Live streaming from Space Station
objects crossing your sky now

BLOCK DM-SL R/B

Track BLOCK DM-SL R/B now!


NORAD ID: 55507
Int'l Code: 2023-016B
Perigee: 34,598.6 km
Apogee: 35,376.1 km
Inclination: 1.2 °
Period: 1,395.1 minutes
Semi major axis: 41358 km
RCS: Unknown
Launch date: February 5, 2023
Source: Commonwealth of Independent States (former USSR) (CIS)
Launch site: TYURATAM MISSILE AND SPACE COMPLEX (TTMTR)

Note: This is a ROCKET BODY
Your satellite tracking list
Your tracking list is empty




NASA's NSSDC Master Catalog

Two Line Element Set (TLE):
1 55507U 23016B   24325.54146668 -.00000033  00000-0  00000-0 0  9997
2 55507   1.2008  87.4177 0093991 227.8311 130.7389  1.03218635  6752
Source of the keplerian elements: AFSPC